Home   Weather   Heinsberg   Past weeks

Flag for Germany Past Weather in Heinsberg, North Rhine-Westphalia, Germany — Yesterday and Last 2 Weeks

Now
41 °F

Sunny.


Feels Like: 36 °F
Forecast: 27 / 40 °F
Wind: 7 mph from East

Location: Geilenkirchen Airport

Current Time: Dec 5, 2016 at 3:47:12 pm

Latest Report: Dec 5, 2016 at 2:50 pm


Visibility: 10 mi

Pressure: 30.30 "Hg

Humidity: 70%

Dew Point: 32 °F

Location of HeinsbergLocation

Past Weather in Heinsberg — Graph

°F

Heinsberg Temperature Yesterday

Maximum temperature yesterday: 34 °F (at 6:50 pm)
Minimum temperature yesterday: 30 °F (at 10:50 pm)
Average temperature yesterday: 32 °F

High & Low Weather Summary for the Past Weeks

 TemperatureHumidityPressure
High61 °F (Nov 21, 5:50 pm)100% (Nov 23, 6:50 am)30.57 "Hg (Nov 23, 6:50 am)
Low21 °F (Nov 29, 4:50 am)52% (Nov 30, 1:50 pm)29.45 "Hg (Nov 21, 3:50 pm)
Average42 °F82%30.15 "Hg
* Reported Nov 20 6:50 pm — Dec 5 1:50 pm, Heinsberg, Weather by CustomWeather, © 2016

Note: Actual official high and low records may vary slightly from our data, if they occured in-between our weather recording intervals... More about our weather records

Advertising

Heinsberg Weather History for the Previous 24 Hours

Scroll right to see more
 ConditionsComfort  
Time TempWeatherWind HumidityBarometerVisibility
1:50 pm
Mon, Dec 5
41 °FSunny.5 mph70%30.30 "Hg10 mi
12:50 pm41 °FSunny.3 mph70%30.30 "Hg10 mi
11:50 am39 °FSunny.1 mph70%30.30 "Hg10 mi
10:50 am34 °FSunny.3 mph81%30.30 "Hg10 mi
9:50 am30 °FSunny.3 mph80%30.30 "Hg10 mi
8:50 am25 °FSunny.5 mph93%30.30 "Hg10 mi
7:50 am25 °FClear.No wind86%30.30 "Hg10 mi
6:50 am27 °FClear.3 mph93%30.27 "Hg10 mi
5:50 am27 °FClear.3 mph93%30.27 "Hg10 mi
4:50 am28 °FClear.6 mph86%30.27 "Hg10 mi
3:50 am28 °FClear.3 mph80%30.30 "Hg10 mi
2:50 am28 °FClear.3 mph80%30.30 "Hg10 mi
1:50 am25 °FClear.5 mph80%30.30 "Hg10 mi
12:50 am30 °FClear.6 mph80%30.30 "Hg10 mi
11:50 pm
Sun, Dec 4
30 °FClear.5 mph80%30.30 "Hg10 mi
10:50 pm30 °FClear.7 mph80%30.30 "Hg10 mi
9:50 pm32 °FClear.8 mph80%30.30 "Hg10 mi
8:50 pm32 °FClear.5 mph80%30.30 "Hg10 mi
7:50 pm34 °FClear.8 mph75%30.30 "Hg10 mi
6:50 pm34 °FClear.12 mph75%30.30 "Hg10 mi
Weather by CustomWeather, © 2016

See weather overviewHow to use our weather pages